Regional Weather Roundup
Issued by NWS Mobile, AL

Home | Current Version | Previous Version | Text Only | Print | Product List | Glossary On
Versions: 1 2 3 4 5 6 7 8 9 10 11 12 13 14 15 16 17 18 19 20 21 22 23 24 25 26 27 28 29 30 31 32 33 34 35 36 37 38 39 40 41 42 43 44 45 46 47 48 49 50
000
ASUS44 KMOB 222010
RWRMOB
REGIONAL WEATHER ROUNDUP
NATIONAL WEATHER SERVICE MOBILE AL
300 PM CDT MON SEP 22 2014

NOTE: "FAIR" INDICATES FEW OR NO CLOUDS BELOW 12,000 FEET WITH NO
      SIGNIFICANT WEATHER AND/OR OBSTRUCTIONS TO VISIBILITY.

  * THESE STATIONS ARE PART OF THE UNIVERSITY OF SOUTH ALABAMA
    MESONET AND ARE NOT UNDER NWS OR FAA QUALITY CONTROL.

ALZ061>064-222100-
COASTAL ALABAMA

CITY           SKY/WX    TMP DP  RH WIND       PRES   REMARKS
MOBILE REG APT PTSUNNY   85  72  65 N7        29.99F
BROOKLEY FIELD MOSUNNY   86  73  65 N10       29.98F
USA CAMPUS*      N/A     84  70  61 E5        29.96F
DOG RIVER*     NOT AVBL


CITY           SKY/WX    TMP DP  RH WIND       PRES   REMARKS
MOUNT VERNON*    N/A     82  64  54 CALM      30.00F
SARALAND*      NOT AVBL
BAY MINETTE*   NOT AVBL
LOXLEY*          N/A     72  68  88 N15       29.97F
ROBERTSDALE*     N/A     81  70  69 NE10      29.96F
FAIRHOPE*        N/A     84  72  65 NW6       29.96F
ELBERTA*         N/A     84  73  70 N6        29.96S
FOLEY*         NOT AVBL
GRAND BAY*       N/A     84  70  61 N10       29.95F
DAUPHIN ISLND* NOT AVBL
BON SCOUR NWR* NOT AVBL
GULF SHORES    PTSUNNY   87  72  61 N12       29.96S

$$

ALZ051>060-222100-
INTERIOR SOUTHWEST AND SOUTH CENTRAL ALABAMA

CITY           SKY/WX    TMP DP  RH WIND       PRES   REMARKS
GREENVILLE     MOSUNNY   81  60  48 NE8       30.02F
EVERGREEN      MOSUNNY   83  64  52 N10G20    30.02F
CASTLEBERRY*   NOT AVBL
ATMORE*          N/A     82  70  65 NE12      30.01F
DIXIE*         NOT AVBL
ANDALUSIA/OPP  PTSUNNY   79  71  76 VRB7      30.01F
ANDALUSIA*     NOT AVBL
FLORALA APT    CLOUDY    73  70  88 NE8       30.03R
FLORALA*         N/A     70  68  94 N6        29.98R

$$

FLZ001>006-222100-
WESTERN FLORIDA PANHANDLE

CITY           SKY/WX    TMP DP  RH WIND       PRES   REMARKS
PENSACOLA      MOSUNNY   83  70  64 N9        29.96R
NAS PENSACOLA  PTSUNNY   86  70  58 N8        29.96R
MILTON         PTSUNNY   84  69  60 N6G18     29.98S
WHTNG S FIELD  MOSUNNY   86  70  58 N15       29.97F


CITY           SKY/WX    TMP DP  RH WIND       PRES   REMARKS
WALNUT HILL*   NOT AVBL
JAY*           NOT AVBL
DUKE FIELD     TSTM      80  75  85 N18G26    29.97R
CRESTVIEW      LGT RAIN  76  72  87 N12G23    30.00R
VALPARAISO     TSTM      84  72  65 NW7G18    29.98R VSB 1/2
DESTIN         MOSUNNY   88  70  55 S8        29.93F

$$

MSZ076-079-222100-
INTERIOR SOUTHEAST MISSISSIPPI

CITY           SKY/WX    TMP DP  RH WIND       PRES   REMARKS
LEAKESVILLE*     N/A     82  59  44 NE8       30.01
AGRICOLA*      NOT AVBL

$$

MARINE OBSERVATIONS

STATION/POSITION TIME  TEMP    WIND        PRES    WAVE
                       AIR SEA DIR/SP/G            HT/PER
                 (UTC) (F)     (DEG/KT/KT) (MB)    (FT/S)
PASCAGOULA       2000   85      20/ 12/ 16 1014.8F
PETIT BOIS ISLND 2000   81      40/ 10/ 13 1015.5R
GRAND BAY        1900   85     210/  7     1016.0F
KATRINA CUT      1900   84     120/  1     1015.6F
CEDAR POINT      1900   84      90/  2     1014.6F
E DAUPHIN ISLAND 2000   82     320/  8/  9 1015.0R
MIDDLE BAY LIGHT 1900   80     310/  7     1014.2F
USCG MOBILE BAY  2000      85              1014.0S
STATE DOCKS      2000   85 86              1014.9R
MEAHER PARK      1900   84     350/  9     1014.2F
WEEKS BAY        1900   89                   N/A
FORT MORGAN      2000   81     360/ 12/ 14 1014.7R
12 S ORANGE BCH  2000   84 87  210/  4/  6 1014.9S   1/ 4
PENSACOLA BAY    2000   86 85   10/  6/ 11 1014.9S
64 S DAUPHIN ISL 1904   82 85   60/ 12/ 14 1015.1F   2/ 3
67 S FORT MORGAN 1900   85                 1014.6F

$$

SELECTED LOCATIONS ACROSS THE REGION

CITY           SKY/WX    TMP DP  RH WIND       PRES   REMARKS
NEW ORLEANS    MOSUNNY   90  71  53 N12       29.97F HX  96
GULFPORT       PTSUNNY   80  73  79 SE6       29.98F
PASCAGOULA AP  MOSUNNY   86  73  65 N9        29.97F
PASCAGOULA*    NOT AVBL
HATTIESBURG    SUNNY     87  60  40 N12       30.02F
LAUREL         SUNNY    N/A N/A N/A NE14G20   30.04F
MERIDIAN       SUNNY     84  46  26 N16G22    30.06F
JACKSON        SUNNY     84  52  33 N14       30.08F
MONTGOMERY     MOSUNNY   84  55  36 N5        30.02F
TROY           MOSUNNY   77  67  71 N9        30.03F
KINSTON*       NOT AVBL
GENEVA*          N/A     75  68  78 NE8       30.01R
ASHFORD*       NOT AVBL
DOTHAN         PTSUNNY   79  64  60 N13G21    30.04R
PANAMA CITY    MOSUNNY   93  63  36 CALM      29.93F

$$




USA.gov is the U.S. government's official web portal to all federal, state and local government web resources and services.